contact:dominique.lefevre@mio.osupytheas.fr, maurice.libes@osupytheas.fr, didier.mallarino@osupytheas.fr
Project:EMSO http://www.emso-fr.org/EMSO-France
Depth: 2436.0 m
Title:EMSO Ligure Ouest : Data MII capteur MICROCAT
DateTime_Computer,Latitude,Longitude,Temperature,Conductivity,Pressure,DateTime_Instrument
DateTime_Computer,Latitude,Longitude,degC,S m-1,dbar,DateTime_Instrument
2020-02-23T00:00:28Z,42.805,6.029,13.2978,4.59995,2469.937,2020-2-23T02:01:03Z
2020-02-23T00:03:31Z,42.805,6.029,13.2981,4.59992,2469.96,2020-2-23T02:04:07Z
2020-02-23T00:06:34Z,42.805,6.029,13.2979,4.59988,2469.914,2020-2-23T02:07:10Z
2020-02-23T00:09:37Z,42.805,6.029,13.2982,4.59991,2469.914,2020-2-23T02:10:13Z
2020-02-23T00:12:41Z,42.805,6.029,13.2970,4.59983,2469.9,2020-2-23T02:13:16Z
2020-02-23T00:15:44Z,42.805,6.029,13.2982,4.59994,2469.876,2020-2-23T02:16:19Z
2020-02-23T00:18:47Z,42.805,6.029,13.2977,4.59985,2469.853,2020-2-23T02:19:23Z
2020-02-23T00:21:50Z,42.805,6.029,13.2982,4.59987,2469.9,2020-2-23T02:22:26Z
2020-02-23T00:24:53Z,42.805,6.029,13.2974,4.59983,2469.937,2020-2-23T02:25:29Z
2020-02-23T00:27:57Z,42.805,6.029,13.2974,4.59988,2469.867,2020-2-23T02:28:32Z
2020-02-23T00:31:00Z,42.805,6.029,13.2978,4.59997,2469.914,2020-2-23T02:31:35Z
2020-02-23T00:34:03Z,42.805,6.029,13.2982,4.60001,2469.9,2020-2-23T02:34:38Z
2020-02-23T00:37:06Z,42.805,6.029,13.2987,4.59994,2469.9,2020-2-23T02:37:42Z
2020-02-23T00:40:09Z,42.805,6.029,13.2974,4.59990,2469.9,2020-2-23T02:40:45Z
2020-02-23T00:43:13Z,42.805,6.029,13.2985,4.59996,2469.867,2020-2-23T02:43:48Z
2020-02-23T00:46:16Z,42.805,6.029,13.2974,4.59987,2469.876,2020-2-23T02:46:51Z
2020-02-23T00:49:19Z,42.805,6.029,13.2982,4.59996,2469.853,2020-2-23T02:49:54Z
2020-02-23T00:52:22Z,42.805,6.029,13.2981,4.59983,2469.9,2020-2-23T02:52:58Z
2020-02-23T00:55:25Z,42.805,6.029,13.2979,4.59987,2469.867,2020-2-23T02:56:01Z
2020-02-23T00:58:29Z,42.805,6.029,13.2976,4.59994,2469.876,2020-2-23T02:59:04Z
2020-02-23T01:01:32Z,42.805,6.029,13.2979,4.60000,2469.876,2020-2-23T03:02:07Z
2020-02-23T01:04:35Z,42.805,6.029,13.2983,4.59993,2469.853,2020-2-23T03:05:10Z
2020-02-23T01:07:38Z,42.805,6.029,13.2982,4.59984,2469.876,2020-2-23T03:08:14Z
2020-02-23T01:10:41Z,42.805,6.029,13.2977,4.59988,2469.876,2020-2-23T03:11:17Z
2020-02-23T01:13:44Z,42.805,6.029,13.2982,4.59993,2469.853,2020-2-23T03:14:20Z
2020-02-23T01:16:48Z,42.805,6.029,13.2986,4.59995,2469.9,2020-2-23T03:17:23Z
2020-02-23T01:19:51Z,42.805,6.029,13.2983,4.59996,2469.867,2020-2-23T03:20:26Z
2020-02-23T01:22:54Z,42.805,6.029,13.2979,4.59983,2469.89,2020-2-23T03:23:30Z
2020-02-23T01:25:57Z,42.805,6.029,13.2981,4.59987,2469.867,2020-2-23T03:26:33Z
2020-02-23T01:29:01Z,42.805,6.029,13.2982,4.60008,2469.876,2020-2-23T03:29:36Z
2020-02-23T01:32:04Z,42.805,6.029,13.2978,4.59992,2469.844,2020-2-23T03:32:39Z
2020-02-23T01:35:07Z,42.805,6.029,13.2974,4.59985,2469.876,2020-2-23T03:35:42Z
2020-02-23T01:38:10Z,42.805,6.029,13.2976,4.59987,2469.89,2020-2-23T03:38:46Z
2020-02-23T01:41:13Z,42.805,6.029,13.2987,4.59997,2469.9,2020-2-23T03:41:49Z
2020-02-23T01:44:16Z,42.805,6.029,13.2984,4.59985,2469.867,2020-2-23T03:44:52Z
2020-02-23T01:47:20Z,42.805,6.029,13.2973,4.59991,2469.853,2020-2-23T03:47:55Z
2020-02-23T01:50:23Z,42.805,6.029,13.2980,4.59991,2469.89,2020-2-23T03:50:58Z
2020-02-23T01:53:26Z,42.805,6.029,13.2976,4.59986,2469.876,2020-2-23T03:54:02Z
2020-02-23T01:56:29Z,42.805,6.029,13.2974,4.59997,2469.876,2020-2-23T03:57:05Z
2020-02-23T01:59:32Z,42.805,6.029,13.2984,4.59998,2469.867,2020-2-23T04:00:08Z
2020-02-23T02:02:36Z,42.805,6.029,13.2980,4.59985,2469.853,2020-2-23T04:03:11Z
2020-02-23T02:05:39Z,42.805,6.029,13.2978,4.59982,2469.914,2020-2-23T04:06:14Z
2020-02-23T02:08:42Z,42.805,6.029,13.2979,4.59996,2469.89,2020-2-23T04:09:17Z
2020-02-23T02:11:45Z,42.805,6.029,13.2978,4.59979,2469.876,2020-2-23T04:12:21Z
2020-02-23T02:14:48Z,42.805,6.029,13.2978,4.59991,2469.89,2020-2-23T04:15:24Z
2020-02-23T02:17:52Z,42.805,6.029,13.2977,4.59992,2469.876,2020-2-23T04:18:27Z
2020-02-23T02:20:55Z,42.805,6.029,13.2982,4.59985,2469.89,2020-2-23T04:21:30Z
2020-02-23T02:23:58Z,42.805,6.029,13.2969,4.59988,2469.867,2020-2-23T04:24:34Z
2020-02-23T02:27:01Z,42.805,6.029,13.2980,4.59981,2469.867,2020-2-23T04:27:37Z
2020-02-23T02:30:04Z,42.805,6.029,13.2976,4.59987,2469.876,2020-2-23T04:30:40Z
2020-02-23T02:33:08Z,42.805,6.029,13.2975,4.59981,2469.876,2020-2-23T04:33:43Z
2020-02-23T02:36:11Z,42.805,6.029,13.2978,4.59978,2469.867,2020-2-23T04:36:46Z
2020-02-23T02:39:14Z,42.805,6.029,13.2977,4.59974,2469.89,2020-2-23T04:39:50Z
2020-02-23T02:42:17Z,42.805,6.029,13.2983,4.59980,2469.923,2020-2-23T04:42:53Z
2020-02-23T02:45:20Z,42.805,6.029,13.2980,4.59986,2469.886,2020-2-23T04:45:56Z
2020-02-23T02:48:24Z,42.805,6.029,13.2982,4.59981,2469.876,2020-2-23T04:48:59Z
2020-02-23T02:51:27Z,42.805,6.029,13.2973,4.59976,2469.923,2020-2-23T04:52:02Z
2020-02-23T02:54:30Z,42.805,6.029,13.2979,4.59977,2469.909,2020-2-23T04:55:06Z
2020-02-23T02:57:33Z,42.805,6.029,13.2982,4.59997,2469.914,2020-2-23T04:58:09Z
2020-02-23T03:00:36Z,42.805,6.029,13.2976,4.59969,2469.9,2020-2-23T05:01:12Z
2020-02-23T03:03:40Z,42.805,6.029,13.2979,4.59978,2469.876,2020-2-23T05:04:15Z
2020-02-23T03:06:43Z,42.805,6.029,13.2980,4.59993,2469.937,2020-2-23T05:07:18Z
2020-02-23T03:09:46Z,42.805,6.029,13.2979,4.59986,2469.914,2020-2-23T05:10:22Z
2020-02-23T03:12:49Z,42.805,6.029,13.2982,4.59979,2469.937,2020-2-23T05:13:25Z
2020-02-23T03:15:52Z,42.805,6.029,13.2978,4.59981,2469.89,2020-2-23T05:16:28Z
2020-02-23T03:18:56Z,42.805,6.029,13.2986,4.59979,2469.923,2020-2-23T05:19:31Z
2020-02-23T03:21:59Z,42.805,6.029,13.2972,4.59970,2469.937,2020-2-23T05:22:34Z
2020-02-23T03:25:02Z,42.805,6.029,13.2973,4.59971,2469.923,2020-2-23T05:25:38Z
2020-02-23T03:28:05Z,42.805,6.029,13.2976,4.59973,2469.937,2020-2-23T05:28:41Z
2020-02-23T03:31:09Z,42.805,6.029,13.2977,4.59973,2469.96,2020-2-23T05:31:44Z
2020-02-23T03:34:12Z,42.805,6.029,13.2978,4.59978,2469.947,2020-2-23T05:34:47Z
2020-02-23T03:37:15Z,42.805,6.029,13.2983,4.59988,2469.9,2020-2-23T05:37:50Z
2020-02-23T03:40:18Z,42.805,6.029,13.2974,4.59976,2469.937,2020-2-23T05:40:54Z
2020-02-23T03:43:21Z,42.805,6.029,13.2983,4.59981,2469.96,2020-2-23T05:43:57Z
2020-02-23T03:46:25Z,42.805,6.029,13.2982,4.59977,2469.937,2020-2-23T05:47:00Z
2020-02-23T03:49:28Z,42.805,6.029,13.2978,4.59981,2469.97,2020-2-23T05:50:03Z
2020-02-23T03:52:31Z,42.805,6.029,13.2987,4.59978,2469.947,2020-2-23T05:53:06Z
2020-02-23T03:55:34Z,42.805,6.029,13.2984,4.59983,2469.947,2020-2-23T05:56:10Z
2020-02-23T03:58:37Z,42.805,6.029,13.2986,4.59999,2469.984,2020-2-23T05:59:13Z
2020-02-23T04:01:41Z,42.805,6.029,13.2988,4.59996,2469.984,2020-2-23T06:02:16Z
2020-02-23T04:04:44Z,42.805,6.029,13.2983,4.59983,2469.97,2020-2-23T06:05:19Z
2020-02-23T04:07:47Z,42.805,6.029,13.2984,4.59985,2469.984,2020-2-23T06:08:22Z
2020-02-23T04:10:50Z,42.805,6.029,13.2985,4.59996,2469.993,2020-2-23T06:11:26Z
2020-02-23T04:13:53Z,42.805,6.029,13.2978,4.59992,2469.97,2020-2-23T06:14:29Z
2020-02-23T04:16:57Z,42.805,6.029,13.2982,4.59989,2470.03,2020-2-23T06:17:32Z
2020-02-23T04:20:00Z,42.805,6.029,13.2988,4.59979,2470.017,2020-2-23T06:20:35Z
2020-02-23T04:23:03Z,42.805,6.029,13.2980,4.59987,2469.97,2020-2-23T06:23:39Z
2020-02-23T04:26:06Z,42.805,6.029,13.2984,4.59998,2469.984,2020-2-23T06:26:42Z
2020-02-23T04:29:09Z,42.805,6.029,13.2983,4.59994,2469.993,2020-2-23T06:29:45Z
2020-02-23T04:32:13Z,42.805,6.029,13.2976,4.59984,2470.053,2020-2-23T06:32:48Z
2020-02-23T04:35:16Z,42.805,6.029,13.2980,4.59992,2469.993,2020-2-23T06:35:51Z
2020-02-23T04:38:19Z,42.805,6.029,13.2982,4.59999,2469.993,2020-2-23T06:38:55Z
2020-02-23T04:41:22Z,42.805,6.029,13.2982,4.59986,2469.984,2020-2-23T06:41:58Z
2020-02-23T04:44:26Z,42.805,6.029,13.2979,4.59987,2470.03,2020-2-23T06:45:01Z
2020-02-23T04:47:29Z,42.805,6.029,13.2978,4.59986,2470.03,2020-2-23T06:48:05Z
2020-02-23T04:50:32Z,42.805,6.029,13.2979,4.59989,2470.007,2020-2-23T06:51:08Z
2020-02-23T04:53:35Z,42.805,6.029,13.2977,4.59984,2470.04,2020-2-23T06:54:11Z
2020-02-23T04:56:39Z,42.805,6.029,13.2978,4.59989,2469.993,2020-2-23T06:57:14Z
2020-02-23T04:59:42Z,42.805,6.029,13.2980,4.59988,2470.017,2020-2-23T07:00:17Z
2020-02-23T05:02:45Z,42.805,6.029,13.2982,4.59993,2470.053,2020-2-23T07:03:20Z
2020-02-23T05:05:48Z,42.805,6.029,13.2978,4.59982,2470.017,2020-2-23T07:06:24Z
2020-02-23T05:08:51Z,42.805,6.029,13.2980,4.59991,2470.053,2020-2-23T07:09:27Z
2020-02-23T05:11:55Z,42.805,6.029,13.2979,4.59990,2470.04,2020-2-23T07:12:30Z
2020-02-23T05:14:58Z,42.805,6.029,13.2976,4.59979,2470.063,2020-2-23T07:15:33Z
2020-02-23T05:18:01Z,42.805,6.029,13.2977,4.59986,2470.053,2020-2-23T07:18:37Z
2020-02-23T05:21:04Z,42.805,6.029,13.2976,4.59991,2470.04,2020-2-23T07:21:40Z
2020-02-23T05:24:07Z,42.805,6.029,13.2976,4.59990,2470.03,2020-2-23T07:24:43Z
2020-02-23T05:27:11Z,42.805,6.029,13.2983,4.59991,2470.04,2020-2-23T07:27:46Z
2020-02-23T05:30:14Z,42.805,6.029,13.2974,4.59987,2470.063,2020-2-23T07:30:49Z
2020-02-23T05:33:17Z,42.805,6.029,13.2975,4.59988,2470.077,2020-2-23T07:33:53Z
2020-02-23T05:36:20Z,42.805,6.029,13.2975,4.59988,2470.063,2020-2-23T07:36:56Z
2020-02-23T05:39:24Z,42.805,6.029,13.2982,4.59984,2470.053,2020-2-23T07:39:59Z
2020-02-23T05:42:27Z,42.805,6.029,13.2976,4.59989,2470.077,2020-2-23T07:43:02Z
2020-02-23T05:45:30Z,42.805,6.029,13.2976,4.59984,2470.11,2020-2-23T07:46:05Z
2020-02-23T05:48:33Z,42.805,6.029,13.2982,4.59982,2470.087,2020-2-23T07:49:09Z
2020-02-23T05:51:36Z,42.805,6.029,13.2973,4.59986,2470.087,2020-2-23T07:52:12Z
2020-02-23T05:54:39Z,42.805,6.029,13.2972,4.59996,2470.04,2020-2-23T07:55:15Z
2020-02-23T05:57:43Z,42.805,6.029,13.2973,4.59986,2470.087,2020-2-23T07:58:18Z
2020-02-23T06:00:46Z,42.805,6.029,13.2975,4.59985,2470.087,2020-2-23T08:01:21Z
2020-02-23T06:03:49Z,42.805,6.029,13.2974,4.59988,2470.1,2020-2-23T08:04:25Z
2020-02-23T06:06:52Z,42.805,6.029,13.2983,4.59996,2470.073,2020-2-23T08:07:28Z
2020-02-23T06:09:55Z,42.805,6.029,13.2977,4.59990,2470.147,2020-2-23T08:10:31Z
2020-02-23T06:12:59Z,42.805,6.029,13.2969,4.59982,2470.087,2020-2-23T08:13:34Z
2020-02-23T06:16:02Z,42.805,6.029,13.2974,4.59984,2470.063,2020-2-23T08:16:37Z
2020-02-23T06:19:05Z,42.805,6.029,13.2971,4.59991,2470.1,2020-2-23T08:19:41Z
2020-02-23T06:22:08Z,42.805,6.029,13.2971,4.59990,2470.087,2020-2-23T08:22:44Z
2020-02-23T06:25:12Z,42.805,6.029,13.2978,4.59990,2470.04,2020-2-23T08:25:47Z
2020-02-23T06:28:15Z,42.805,6.029,13.2971,4.59986,2470.087,2020-2-23T08:28:50Z
2020-02-23T06:31:18Z,42.805,6.029,13.2979,4.59993,2470.096,2020-2-23T08:31:53Z
2020-02-23T06:34:21Z,42.805,6.029,13.2973,4.59986,2470.087,2020-2-23T08:34:57Z
2020-02-23T06:37:24Z,42.805,6.029,13.2979,4.59995,2470.1,2020-2-23T08:38:00Z
2020-02-23T06:40:27Z,42.805,6.029,13.2979,4.59987,2470.147,2020-2-23T08:41:03Z
2020-02-23T06:43:31Z,42.805,6.029,13.2979,4.59994,2470.133,2020-2-23T08:44:06Z
2020-02-23T06:46:34Z,42.805,6.029,13.2977,4.59989,2470.1,2020-2-23T08:47:09Z
2020-02-23T06:49:37Z,42.805,6.029,13.2974,4.59992,2470.133,2020-2-23T08:50:13Z
2020-02-23T06:52:40Z,42.805,6.029,13.2973,4.59990,2470.087,2020-2-23T08:53:16Z
2020-02-23T06:55:43Z,42.805,6.029,13.2970,4.59994,2470.124,2020-2-23T08:56:19Z
2020-02-23T06:58:47Z,42.805,6.029,13.2976,4.59991,2470.087,2020-2-23T08:59:22Z
2020-02-23T07:01:50Z,42.805,6.029,13.2985,4.59991,2470.124,2020-2-23T09:02:25Z
2020-02-23T07:04:53Z,42.805,6.029,13.2980,4.59990,2470.11,2020-2-23T09:05:29Z
2020-02-23T07:07:56Z,42.805,6.029,13.2979,4.59981,2470.11,2020-2-23T09:08:32Z
2020-02-23T07:11:00Z,42.805,6.029,13.2975,4.59976,2470.11,2020-2-23T09:11:35Z
2020-02-23T07:14:03Z,42.805,6.029,13.2978,4.59986,2470.124,2020-2-23T09:14:38Z
2020-02-23T07:17:06Z,42.805,6.029,13.2978,4.59993,2470.11,2020-2-23T09:17:42Z
2020-02-23T07:20:09Z,42.805,6.029,13.2982,4.59991,2470.147,2020-2-23T09:20:45Z
2020-02-23T07:23:12Z,42.805,6.029,13.2982,4.59975,2470.133,2020-2-23T09:23:48Z
2020-02-23T07:26:16Z,42.805,6.029,13.2972,4.59985,2470.124,2020-2-23T09:26:51Z
2020-02-23T07:29:19Z,42.805,6.029,13.2972,4.60000,2470.156,2020-2-23T09:29:54Z
2020-02-23T07:32:22Z,42.805,6.029,13.2976,4.59983,2470.133,2020-2-23T09:32:58Z
2020-02-23T07:35:25Z,42.805,6.029,13.2980,4.59987,2470.147,2020-2-23T09:36:01Z
2020-02-23T07:38:28Z,42.805,6.029,13.2979,4.59986,2470.147,2020-2-23T09:39:04Z
2020-02-23T07:41:32Z,42.805,6.029,13.2986,4.59982,2470.11,2020-2-23T09:42:07Z
2020-02-23T07:44:35Z,42.805,6.029,13.2979,4.59981,2470.124,2020-2-23T09:45:10Z
2020-02-23T07:47:38Z,42.805,6.029,13.2978,4.59991,2470.147,2020-2-23T09:48:14Z
2020-02-23T07:50:41Z,42.805,6.029,13.2974,4.59986,2470.11,2020-2-23T09:51:17Z
2020-02-23T07:53:44Z,42.805,6.029,13.2977,4.59987,2470.11,2020-2-23T09:54:20Z
2020-02-23T07:56:48Z,42.805,6.029,13.2974,4.59977,2470.11,2020-2-23T09:57:23Z
2020-02-23T07:59:51Z,42.805,6.029,13.2977,4.59971,2470.156,2020-2-23T10:00:26Z
2020-02-23T08:02:54Z,42.805,6.029,13.2983,4.59974,2470.147,2020-2-23T10:03:30Z
2020-02-23T08:05:57Z,42.805,6.029,13.2975,4.59976,2470.147,2020-2-23T10:06:33Z
2020-02-23T08:09:00Z,42.805,6.029,13.2970,4.59973,2470.147,2020-2-23T10:09:36Z
2020-02-23T08:12:04Z,42.805,6.029,13.2977,4.59978,2470.11,2020-2-23T10:12:39Z
2020-02-23T08:15:07Z,42.805,6.029,13.2979,4.59981,2470.133,2020-2-23T10:15:42Z
2020-02-23T08:18:10Z,42.805,6.029,13.2984,4.59979,2470.147,2020-2-23T10:18:46Z
2020-02-23T08:21:13Z,42.805,6.029,13.2976,4.59976,2470.133,2020-2-23T10:21:49Z
2020-02-23T08:24:17Z,42.805,6.029,13.2977,4.59989,2470.133,2020-2-23T10:24:52Z
2020-02-23T08:27:20Z,42.805,6.029,13.2974,4.59978,2470.1,2020-2-23T10:27:55Z
2020-02-23T08:30:23Z,42.805,6.029,13.2979,4.59974,2470.147,2020-2-23T10:30:58Z
2020-02-23T08:33:26Z,42.805,6.029,13.2979,4.59983,2470.147,2020-2-23T10:34:02Z
2020-02-23T08:36:29Z,42.805,6.029,13.2976,4.59993,2470.11,2020-2-23T10:37:05Z
2020-02-23T08:39:33Z,42.805,6.029,13.2977,4.59986,2470.1,2020-2-23T10:40:08Z
2020-02-23T08:42:36Z,42.805,6.029,13.2974,4.59971,2470.124,2020-2-23T10:43:11Z
2020-02-23T08:45:39Z,42.805,6.029,13.2976,4.59982,2470.087,2020-2-23T10:46:14Z
2020-02-23T08:48:42Z,42.805,6.029,13.2973,4.59972,2470.124,2020-2-23T10:49:18Z
2020-02-23T08:51:46Z,42.805,6.029,13.2977,4.59981,2470.124,2020-2-23T10:52:21Z
2020-02-23T08:54:49Z,42.805,6.029,13.2971,4.59975,2470.087,2020-2-23T10:55:25Z
2020-02-23T08:57:52Z,42.805,6.029,13.2973,4.59992,2470.11,2020-2-23T10:58:28Z
2020-02-23T09:00:55Z,42.805,6.029,13.2978,4.59974,2470.087,2020-2-23T11:01:31Z
2020-02-23T09:03:59Z,42.805,6.029,13.2974,4.59988,2470.124,2020-2-23T11:04:34Z
2020-02-23T09:07:02Z,42.805,6.029,13.2974,4.59978,2470.124,2020-2-23T11:07:37Z
2020-02-23T09:10:05Z,42.805,6.029,13.2977,4.59978,2470.11,2020-2-23T11:10:41Z
2020-02-23T09:13:08Z,42.805,6.029,13.2972,4.59980,2470.11,2020-2-23T11:13:44Z
2020-02-23T09:16:11Z,42.805,6.029,13.2976,4.59979,2470.087,2020-2-23T11:16:47Z
2020-02-23T09:19:15Z,42.805,6.029,13.2976,4.59979,2470.11,2020-2-23T11:19:50Z
2020-02-23T09:22:18Z,42.805,6.029,13.2985,4.59981,2470.087,2020-2-23T11:22:53Z
2020-02-23T09:25:21Z,42.805,6.029,13.2979,4.59983,2470.133,2020-2-23T11:25:56Z
2020-02-23T09:28:24Z,42.805,6.029,13.2977,4.59978,2470.11,2020-2-23T11:29:00Z
2020-02-23T09:31:27Z,42.805,6.029,13.2978,4.59980,2470.1,2020-2-23T11:32:03Z
2020-02-23T09:34:31Z,42.805,6.029,13.2972,4.59969,2470.087,2020-2-23T11:35:06Z
2020-02-23T09:37:34Z,42.805,6.029,13.2978,4.59973,2470.124,2020-2-23T11:38:09Z
2020-02-23T09:40:37Z,42.805,6.029,13.2978,4.59988,2470.063,2020-2-23T11:41:12Z
2020-02-23T09:43:40Z,42.805,6.029,13.2976,4.59975,2470.063,2020-2-23T11:44:16Z
2020-02-23T09:46:43Z,42.805,6.029,13.2979,4.59976,2470.063,2020-2-23T11:47:19Z
2020-02-23T09:49:47Z,42.805,6.029,13.2972,4.59977,2470.1,2020-2-23T11:50:22Z
2020-02-23T09:52:50Z,42.805,6.029,13.2978,4.59977,2470.087,2020-2-23T11:53:25Z
2020-02-23T09:55:53Z,42.805,6.029,13.2977,4.59978,2470.077,2020-2-23T11:56:28Z
2020-02-23T09:58:56Z,42.805,6.029,13.2971,4.59983,2470.04,2020-2-23T11:59:32Z
2020-02-23T10:01:59Z,42.805,6.029,13.2979,4.59973,2470.087,2020-2-23T12:02:35Z
2020-02-23T10:05:03Z,42.805,6.029,13.2975,4.59981,2470.063,2020-2-23T12:05:38Z
2020-02-23T10:08:06Z,42.805,6.029,13.2974,4.59984,2470.087,2020-2-23T12:08:41Z
2020-02-23T10:11:09Z,42.805,6.029,13.2982,4.59978,2470.077,2020-2-23T12:11:45Z
2020-02-23T10:14:12Z,42.805,6.029,13.2976,4.59976,2470.063,2020-2-23T12:14:48Z
2020-02-23T10:17:15Z,42.805,6.029,13.2968,4.59976,2470.087,2020-2-23T12:17:51Z
2020-02-23T10:20:19Z,42.805,6.029,13.2974,4.59976,2470.087,2020-2-23T12:20:54Z
2020-02-23T10:23:22Z,42.805,6.029,13.2982,4.59976,2470.077,2020-2-23T12:23:57Z
2020-02-23T10:26:25Z,42.805,6.029,13.2971,4.59971,2470.1,2020-2-23T12:27:01Z
2020-02-23T10:29:28Z,42.805,6.029,13.2978,4.59978,2470.053,2020-2-23T12:30:04Z
2020-02-23T10:32:32Z,42.805,6.029,13.2971,4.59982,2470.063,2020-2-23T12:33:07Z
2020-02-23T10:35:35Z,42.805,6.029,13.2976,4.59976,2470.087,2020-2-23T12:36:10Z
2020-02-23T10:38:38Z,42.805,6.029,13.2969,4.59968,2470.053,2020-2-23T12:39:13Z
2020-02-23T10:41:41Z,42.805,6.029,13.2974,4.59975,2470.077,2020-2-23T12:42:17Z
2020-02-23T10:44:44Z,42.805,6.029,13.2973,4.59981,2470.063,2020-2-23T12:45:20Z
2020-02-23T10:47:48Z,42.805,6.029,13.2969,4.59968,2470.04,2020-2-23T12:48:23Z
2020-02-23T10:50:51Z,42.805,6.029,13.2974,4.59987,2470.077,2020-2-23T12:51:26Z
2020-02-23T10:53:54Z,42.805,6.029,13.2971,4.59970,2470.063,2020-2-23T12:54:29Z
2020-02-23T10:56:57Z,42.805,6.029,13.2980,4.59976,2470.04,2020-2-23T12:57:33Z
2020-02-23T11:00:00Z,42.805,6.029,13.2967,4.59966,2470.017,2020-2-23T13:00:36Z
2020-02-23T11:03:03Z,42.805,6.029,13.2967,4.59973,2470.04,2020-2-23T13:03:39Z
2020-02-23T11:06:07Z,42.805,6.029,13.2969,4.59971,2470.053,2020-2-23T13:06:42Z
2020-02-23T11:09:10Z,42.805,6.029,13.2976,4.59967,2470.007,2020-2-23T13:09:45Z
2020-02-23T11:12:13Z,42.805,6.029,13.2964,4.59968,2470.053,2020-2-23T13:12:49Z
2020-02-23T11:15:16Z,42.805,6.029,13.2967,4.59970,2470.017,2020-2-23T13:15:52Z
2020-02-23T11:18:19Z,42.805,6.029,13.2974,4.59974,2470.03,2020-2-23T13:18:55Z
2020-02-23T11:21:23Z,42.805,6.029,13.2979,4.59973,2469.993,2020-2-23T13:21:58Z
2020-02-23T11:24:26Z,42.805,6.029,13.2975,4.59975,2469.97,2020-2-23T13:25:01Z
2020-02-23T11:27:29Z,42.805,6.029,13.2968,4.59971,2470.007,2020-2-23T13:28:04Z
2020-02-23T11:30:32Z,42.805,6.029,13.2971,4.59968,2469.993,2020-2-23T13:31:08Z
2020-02-23T11:33:35Z,42.805,6.029,13.2967,4.59966,2469.993,2020-2-23T13:34:11Z
2020-02-23T11:36:39Z,42.805,6.029,13.2962,4.59966,2470.007,2020-2-23T13:37:14Z
2020-02-23T11:39:42Z,42.805,6.029,13.2966,4.59965,2469.993,2020-2-23T13:40:17Z
2020-02-23T11:42:45Z,42.805,6.029,13.2966,4.59966,2469.993,2020-2-23T13:43:21Z
2020-02-23T11:45:48Z,42.805,6.029,13.2974,4.59974,2469.984,2020-2-23T13:46:24Z
2020-02-23T11:48:51Z,42.805,6.029,13.2968,4.59967,2470.017,2020-2-23T13:49:27Z
2020-02-23T11:51:55Z,42.805,6.029,13.2967,4.59966,2470.007,2020-2-23T13:52:30Z
2020-02-23T11:54:58Z,42.805,6.029,13.2968,4.59965,2469.984,2020-2-23T13:55:33Z
2020-02-23T11:58:01Z,42.805,6.029,13.2960,4.59964,2469.993,2020-2-23T13:58:36Z
2020-02-23T12:01:05Z,42.805,6.029,13.2964,4.59964,2469.984,2020-2-23T14:01:40Z
2020-02-23T12:04:08Z,42.805,6.029,13.2967,4.59963,2469.97,2020-2-23T14:04:43Z
2020-02-23T12:07:11Z,42.805,6.029,13.2968,4.59964,2469.947,2020-2-23T14:07:47Z
2020-02-23T12:10:14Z,42.805,6.029,13.2966,4.59966,2469.97,2020-2-23T14:10:50Z
2020-02-23T12:13:17Z,42.805,6.029,13.2962,4.59964,2469.947,2020-2-23T14:13:53Z
2020-02-23T12:16:21Z,42.805,6.029,13.2967,4.59963,2469.947,2020-2-23T14:16:56Z
2020-02-23T12:19:24Z,42.805,6.029,13.2966,4.59963,2469.984,2020-2-23T14:19:59Z
2020-02-23T12:22:27Z,42.805,6.029,13.2964,4.59966,2469.947,2020-2-23T14:23:03Z
2020-02-23T12:25:30Z,42.805,6.029,13.2967,4.59963,2469.984,2020-2-23T14:26:06Z
2020-02-23T12:28:33Z,42.805,6.029,13.2964,4.59964,2469.96,2020-2-23T14:29:09Z
2020-02-23T12:31:37Z,42.805,6.029,13.2967,4.59963,2469.947,2020-2-23T14:32:12Z
2020-02-23T12:34:40Z,42.805,6.029,13.2967,4.59963,2469.97,2020-2-23T14:35:15Z
2020-02-23T12:37:43Z,42.805,6.029,13.2965,4.59963,2469.937,2020-2-23T14:38:18Z
2020-02-23T12:40:46Z,42.805,6.029,13.2967,4.59963,2469.923,2020-2-23T14:41:22Z
2020-02-23T12:43:50Z,42.805,6.029,13.2961,4.59963,2469.937,2020-2-23T14:44:25Z
2020-02-23T12:46:53Z,42.805,6.029,13.2964,4.59964,2469.97,2020-2-23T14:47:28Z
2020-02-23T12:49:56Z,42.805,6.029,13.2967,4.59963,2469.97,2020-2-23T14:50:31Z
2020-02-23T12:52:59Z,42.805,6.029,13.2965,4.59963,2469.923,2020-2-23T14:53:35Z
2020-02-23T12:56:02Z,42.805,6.029,13.2967,4.59963,2469.937,2020-2-23T14:56:38Z
2020-02-23T12:59:06Z,42.805,6.029,13.2968,4.59964,2469.937,2020-2-23T14:59:41Z
2020-02-23T13:02:09Z,42.805,6.029,13.2967,4.59963,2469.947,2020-2-23T15:02:44Z
2020-02-23T13:05:12Z,42.805,6.029,13.2961,4.59964,2469.923,2020-2-23T15:05:47Z
2020-02-23T13:08:15Z,42.805,6.029,13.2965,4.59963,2469.937,2020-2-23T15:08:51Z
2020-02-23T13:11:18Z,42.805,6.029,13.2966,4.59963,2469.923,2020-2-23T15:11:54Z
2020-02-23T13:14:22Z,42.805,6.029,13.2964,4.59963,2469.9,2020-2-23T15:14:57Z
2020-02-23T13:17:25Z,42.805,6.029,13.2964,4.59963,2469.9,2020-2-23T15:18:00Z
2020-02-23T13:20:28Z,42.805,6.029,13.2964,4.59963,2469.9,2020-2-23T15:21:04Z
2020-02-23T13:23:31Z,42.805,6.029,13.2967,4.59963,2469.9,2020-2-23T15:24:07Z
2020-02-23T13:26:34Z,42.805,6.029,13.2965,4.59963,2469.937,2020-2-23T15:27:10Z
2020-02-23T13:29:38Z,42.805,6.029,13.2966,4.59963,2469.914,2020-2-23T15:30:13Z
2020-02-23T13:32:41Z,42.805,6.029,13.2965,4.59963,2469.9,2020-2-23T15:33:16Z
2020-02-23T13:35:44Z,42.805,6.029,13.2964,4.59963,2469.9,2020-2-23T15:36:20Z
2020-02-23T13:38:47Z,42.805,6.029,13.2961,4.59964,2469.876,2020-2-23T15:39:23Z
2020-02-23T13:41:51Z,42.805,6.029,13.2965,4.59964,2469.9,2020-2-23T15:42:26Z
2020-02-23T13:44:54Z,42.805,6.029,13.2966,4.59963,2469.89,2020-2-23T15:45:29Z
2020-02-23T13:47:57Z,42.805,6.029,13.2968,4.59963,2469.876,2020-2-23T15:48:32Z
2020-02-23T13:51:00Z,42.805,6.029,13.2965,4.59963,2469.9,2020-2-23T15:51:36Z
2020-02-23T13:54:03Z,42.805,6.029,13.2964,4.59964,2469.89,2020-2-23T15:54:39Z
2020-02-23T13:57:07Z,42.805,6.029,13.2965,4.59963,2469.923,2020-2-23T15:57:42Z
2020-02-23T14:00:10Z,42.805,6.029,13.2963,4.59964,2469.9,2020-2-23T16:00:45Z
2020-02-23T14:03:13Z,42.805,6.029,13.2967,4.59963,2469.9,2020-2-23T16:03:49Z
2020-02-23T14:06:16Z,42.805,6.029,13.2964,4.59964,2469.923,2020-2-23T16:06:52Z
2020-02-23T14:09:19Z,42.805,6.029,13.2965,4.59964,2469.89,2020-2-23T16:09:55Z
2020-02-23T14:12:23Z,42.805,6.029,13.2962,4.59964,2469.9,2020-2-23T16:12:58Z
2020-02-23T14:15:26Z,42.805,6.029,13.2963,4.59964,2469.9,2020-2-23T16:16:01Z
2020-02-23T14:18:29Z,42.805,6.029,13.2963,4.59964,2469.89,2020-2-23T16:19:04Z
2020-02-23T14:21:32Z,42.805,6.029,13.2967,4.59964,2469.937,2020-2-23T16:22:08Z
2020-02-23T14:24:35Z,42.805,6.029,13.2967,4.59964,2469.876,2020-2-23T16:25:11Z
2020-02-23T14:27:39Z,42.805,6.029,13.2961,4.59964,2469.9,2020-2-23T16:28:14Z
2020-02-23T14:30:42Z,42.805,6.029,13.2967,4.59963,2469.914,2020-2-23T16:31:17Z
2020-02-23T14:33:45Z,42.805,6.029,13.2962,4.59964,2469.9,2020-2-23T16:34:20Z
2020-02-23T14:36:48Z,42.805,6.029,13.2964,4.59964,2469.923,2020-2-23T16:37:24Z
2020-02-23T14:39:51Z,42.805,6.029,13.2966,4.59963,2469.914,2020-2-23T16:40:27Z
2020-02-23T14:42:54Z,42.805,6.029,13.2967,4.59966,2469.914,2020-2-23T16:43:30Z
2020-02-23T14:45:58Z,42.805,6.029,13.2966,4.59964,2469.9,2020-2-23T16:46:33Z
2020-02-23T14:49:01Z,42.805,6.029,13.2967,4.59964,2469.876,2020-2-23T16:49:36Z
2020-02-23T14:52:04Z,42.805,6.029,13.2967,4.59965,2469.914,2020-2-23T16:52:40Z
2020-02-23T14:55:07Z,42.805,6.029,13.2969,4.59965,2469.9,2020-2-23T16:55:43Z
2020-02-23T14:58:11Z,42.805,6.029,13.2964,4.59964,2469.9,2020-2-23T16:58:46Z
2020-02-23T15:01:14Z,42.805,6.029,13.2968,4.59963,2469.876,2020-2-23T17:01:49Z
2020-02-23T15:04:17Z,42.805,6.029,13.2967,4.59965,2469.914,2020-2-23T17:04:53Z
2020-02-23T15:07:20Z,42.805,6.029,13.2966,4.59964,2469.876,2020-2-23T17:07:56Z
2020-02-23T15:10:23Z,42.805,6.029,13.2965,4.59964,2469.9,2020-2-23T17:10:59Z
2020-02-23T15:13:27Z,42.805,6.029,13.2967,4.59965,2469.9,2020-2-23T17:14:02Z